,,PA_Meas_PMT16A,,PR_Meas_QMR101_102,,RH_Meas_QMH101,,SR_Meas_QMS101,,TA_Meas_QMH101,,GenWind,,GenWind,
time,status,PA,status,PR,status,RH,status,SR,status,TA,status,DirAvg,status,SpdAvg,
2016-09-04, 00:00:04,VALID,916.017,VALID,0,VALID,78.8109,VALID,48.0262,VALID,24.6716,VALID,23,VALID,0.0289063,
2016-09-04, 00:01:04,VALID,916.032,VALID,0,VALID,79.7714,VALID,48.9932,VALID,24.693,VALID,20,VALID,0,
2016-09-04, 00:02:04,VALID,916.051,VALID,0,VALID,79.7181,VALID,52.5387,VALID,24.7107,VALID,20,VALID,0,
2016-09-04, 00:03:04,VALID,916.051,VALID,0,VALID,79.0701,VALID,56.2992,VALID,24.6912,VALID,165,VALID,0,
2016-09-04, 00:04:04,VALID,916.071,VALID,0,VALID,78.9633,VALID,61.7787,VALID,24.7321,VALID,165,VALID,0,
2016-09-04, 00:05:04,VALID,916.082,VALID,0,VALID,79.1692,VALID,74.5642,VALID,24.7907,VALID,122,VALID,0,
2016-09-04, 00:06:04,VALID,916.107,VALID,0,VALID,80.2593,VALID,87.0273,VALID,24.8102,VALID,122,VALID,0,
2016-09-04, 00:07:04,VALID,916.142,VALID,0,VALID,79.2988,VALID,112.383,VALID,24.8492,VALID,122,VALID,0,
2016-09-04, 00:08:04,VALID,916.126,VALID,0,VALID,78.5974,VALID,125.384,VALID,24.8883,VALID,122,VALID,0,
2016-09-04, 00:09:04,VALID,916.107,VALID,0,VALID,79.0701,VALID,154.715,VALID,24.8297,VALID,117,VALID,0,
2016-09-04, 00:10:04,VALID,916.108,VALID,0,VALID,79.375,VALID,202.097,VALID,24.8688,VALID,71,VALID,0,
2016-09-04, 00:11:04,VALID,916.159,VALID,0,VALID,78.4145,VALID,151.814,VALID,24.9859,VALID,71,VALID,0,
2016-09-04, 00:12:04,VALID,916.158,VALID,0,VALID,78.0638,VALID,164.815,VALID,24.9645,VALID,110,VALID,0,
2016-09-04, 00:13:04,VALID,916.207,VALID,0,VALID,78.079,VALID,143.541,VALID,24.8864,VALID,111,VALID,0,
2016-09-04, 00:14:04,VALID,916.195,VALID,0,VALID,79.3521,VALID,133.227,VALID,24.945,VALID,85,VALID,0,
2016-09-04, 00:15:04,VALID,916.235,VALID,0,VALID,79.314,VALID,124.847,VALID,25.0231,VALID,356,VALID,0,
2016-09-04, 00:16:04,VALID,916.231,VALID,0,VALID,78.5441,VALID,115.069,VALID,25.0426,VALID,5,VALID,0,
2016-09-04, 00:17:04,VALID,916.235,VALID,0,VALID,78.971,VALID,106.044,VALID,25.064,VALID,8,VALID,0,
2016-09-04, 00:18:04,VALID,916.261,VALID,0,VALID,78.5745,VALID,96.1598,VALID,25.064,VALID,27,VALID,0.239844,
2016-09-04, 00:19:04,VALID,916.247,VALID,0,VALID,77.5073,VALID,90.7878,VALID,24.9469,VALID,322,VALID,0.308594,
2016-09-04, 00:20:04,VALID,916.202,VALID,0,VALID,79.2225,VALID,83.3743,VALID,24.693,VALID,40,VALID,0.25,
2016-09-04, 00:21:04,VALID,916.207,VALID,0,VALID,81.3266,VALID,76.6055,VALID,24.4978,VALID,42,VALID,0.660937,
2016-09-04, 00:22:04,VALID,916.218,VALID,0,VALID,80.7548,VALID,71.9856,VALID,24.4002,VALID,21,VALID,0,
2016-09-04, 00:23:04,VALID,916.196,VALID,0,VALID,81.7001,VALID,66.2912,VALID,24.3806,VALID,8,VALID,0,
2016-09-04, 00:24:04,VALID,916.199,VALID,0,VALID,81.7001,VALID,59.8447,VALID,24.244,VALID,27,VALID,0.878906,
2016-09-04, 00:25:04,VALID,916.206,VALID,0,VALID,81.7916,VALID,52.7536,VALID,24.1659,VALID,20,VALID,0.753906,
2016-09-04, 00:26:04,VALID,916.201,VALID,0,VALID,82.4472,VALID,48.0262,VALID,24.1659,VALID,22,VALID,0.0210938,
2016-09-04, 00:27:04,VALID,916.242,VALID,0,VALID,81.8069,VALID,46.6295,VALID,24.1269,VALID,6,VALID,0.298047,
2016-09-04, 00:28:04,VALID,916.246,VALID,0,VALID,82.5006,VALID,47.5964,VALID,24.0488,VALID,14,VALID,0,
2016-09-04, 00:29:04,VALID,916.293,VALID,0,VALID,83.0342,VALID,49.6378,VALID,24.0292,VALID,27,VALID,0,
2016-09-04, 00:30:04,VALID,916.3,VALID,0,VALID,83.5374,VALID,50.0676,VALID,24.0097,VALID,27,VALID,0,
2016-09-04, 00:31:04,VALID,916.287,VALID,0,VALID,83.2172,VALID,51.7866,VALID,23.9707,VALID,349,VALID,0.664844,
2016-09-04, 00:32:04,VALID,916.301,VALID,0,VALID,82.8208,VALID,52.6462,VALID,23.9316,VALID,19,VALID,0,
2016-09-04, 00:33:04,VALID,916.308,VALID,0,VALID,83.728,VALID,52.6462,VALID,23.9316,VALID,11,VALID,0.00195313,
2016-09-04, 00:34:04,VALID,916.302,VALID,0,VALID,84.8181,VALID,50.175,VALID,23.8944,VALID,14,VALID,0.112891,
2016-09-04, 00:36:04,VALID,916.325,VALID,0,VALID,84.2311,VALID,41.5797,VALID,23.9902,VALID,11,VALID,0,
2016-09-04, 00:37:04,VALID,916.54,VALID,0,VALID,83.9414,VALID,37.6044,VALID,24.0115,VALID,21,VALID,0,
2016-09-04, 00:39:04,VALID,917.273,VALID,0,VALID,85.832,VALID,32.1249,VALID,23.8554,VALID,27,VALID,0.503906,
2016-09-04, 00:40:04,VALID,917.226,VALID,0,VALID,86.7926,VALID,28.6868,VALID,23.8358,VALID,35,VALID,0,
2016-09-04, 00:42:04,VALID,917.799,VALID,0,VALID,85.9083,VALID,25.0338,VALID,23.8554,VALID,29,VALID,0,
2016-09-04, 00:43:04,VALID,916.741,VALID,0,VALID,85.893,VALID,25.3561,VALID,23.8358,VALID,28,VALID,0,
2016-09-04, 00:44:04,VALID,917.844,VALID,0,VALID,86.6935,VALID,26.2156,VALID,23.6992,VALID,25,VALID,0.0421875,
2016-09-04, 00:45:04,VALID,918.344,VALID,0,VALID,90.4823,VALID,26.6454,VALID,23.5839,VALID,15,VALID,0.667578,
2016-09-04, 14:02:04,VALID,918.899,VALID,0,INVALID,115.891,VALID,94.5482,VALID,19.0008,VALID,128,VALID,0,
2016-09-04, 14:03:04,VALID,918.928,VALID,0,INVALID,115.952,VALID,97.1268,VALID,19.1193,VALID,128,VALID,0,
2016-09-04, 14:09:04,VALID,919.026,VALID,0,INVALID,116.951,VALID,113.78,VALID,19.5303,VALID,110,VALID,0,
2016-09-04, 14:10:04,VALID,919.038,VALID,0,INVALID,117.195,VALID,116.896,VALID,19.5678,VALID,110,VALID,0,
2016-09-04, 14:11:04,VALID,919.026,VALID,0,INVALID,117.454,VALID,118.722,VALID,19.6668,VALID,110,VALID,0,
2016-09-04, 14:12:04,VALID,919.055,VALID,0,INVALID,117.698,VALID,119.152,VALID,19.7253,VALID,110,VALID,0,
2016-09-04, 14:13:04,VALID,919.049,VALID,0,INVALID,117.98,VALID,119.797,VALID,19.7838,VALID,110,VALID,0,
2016-09-04, 14:14:04,VALID,919.05,VALID,0,INVALID,118.178,VALID,123.772,VALID,19.8213,VALID,110,VALID,0,
2016-09-04, 14:15:04,VALID,919.031,VALID,0,INVALID,118.285,VALID,128.714,VALID,19.8798,VALID,110,VALID,0,
2016-09-04, 14:16:04,VALID,919.06,VALID,0,INVALID,118.361,VALID,131.508,VALID,19.9593,VALID,120,VALID,0,
2016-09-04, 14:17:04,VALID,919.057,VALID,0,INVALID,118.3,VALID,132.69,VALID,19.9773,VALID,123,VALID,0,
2016-09-04, 14:18:04,VALID,919.089,VALID,0,INVALID,118.056,VALID,134.624,VALID,20.0163,VALID,126,VALID,0,
2016-09-04, 14:19:04,VALID,919.081,VALID,0,INVALID,117.82,VALID,138.384,VALID,20.0553,VALID,122,VALID,0,
2016-09-04, 14:20:04,VALID,919.09,VALID,0,INVALID,117.721,VALID,141.393,VALID,20.1334,VALID,117,VALID,0,
2016-09-04, 14:21:04,VALID,919.064,VALID,0,INVALID,117.622,VALID,145.046,VALID,20.1919,VALID,107,VALID,0,
2016-09-04, 14:22:04,VALID,919.074,VALID,0,INVALID,117.614,VALID,148.591,VALID,20.2699,VALID,154,VALID,0,
2016-09-04, 14:23:04,VALID,919.086,VALID,0,INVALID,117.301,VALID,152.352,VALID,20.2504,VALID,150,VALID,0,
2016-09-04, 14:24:04,VALID,919.091,VALID,0,INVALID,117.309,VALID,155.145,VALID,20.3269,VALID,133,VALID,0,
2016-09-04, 14:25:04,VALID,919.094,VALID,0,INVALID,117.454,VALID,156.112,VALID,20.4634,VALID,133,VALID,0,
2016-09-04, 14:26:04,VALID,919.121,VALID,0,INVALID,117.286,VALID,158.046,VALID,20.5999,VALID,119,VALID,0,
2016-09-04, 14:27:04,VALID,919.15,VALID,0,INVALID,116.92,VALID,159.228,VALID,20.795,VALID,113,VALID,0,
2016-09-04, 14:28:04,VALID,919.155,VALID,0,INVALID,115.746,VALID,161.699,VALID,20.912,VALID,113,VALID,0,
2016-09-04, 14:29:04,VALID,919.179,VALID,0,INVALID,114.656,VALID,163.74,VALID,21.0876,VALID,113,VALID,0,
2016-09-04, 14:30:04,VALID,919.182,VALID,0,INVALID,113.894,VALID,167.608,VALID,21.3217,VALID,113,VALID,0,
2016-09-04, 14:31:04,VALID,919.187,VALID,0,INVALID,111.409,VALID,171.906,VALID,21.4973,VALID,113,VALID,0,
2016-09-04, 14:32:04,VALID,919.171,VALID,0,VALID,92.8151,VALID,176.848,VALID,21.5949,VALID,113,VALID,0,
2016-09-04, 14:33:04,VALID,919.2,VALID,0,VALID,92.2814,VALID,179.964,VALID,21.5559,VALID,113,VALID,0,
2016-09-04, 14:34:04,VALID,919.217,VALID,0,VALID,92.8608,VALID,184.906,VALID,21.6144,VALID,113,VALID,0,
2016-09-04, 14:35:04,VALID,919.249,VALID,0,VALID,92.0756,VALID,189.849,VALID,21.7315,VALID,113,VALID,0,
2016-09-04, 14:36:04,VALID,919.212,VALID,0,VALID,93.6003,VALID,191.353,VALID,21.829,VALID,113,VALID,0,
2016-09-04, 14:37:04,VALID,919.223,VALID,0,VALID,91.42,VALID,195.328,VALID,22.0649,VALID,113,VALID,0,
2016-09-04, 14:38:04,VALID,919.226,VALID,0,VALID,89.2092,VALID,200.378,VALID,22.2779,VALID,113,VALID,0,
2016-09-04, 14:39:04,VALID,919.306,VALID,0,VALID,85.7024,VALID,203.386,VALID,22.4925,VALID,113,VALID,0,
2016-09-04, 14:40:04,VALID,919.263,VALID,0,VALID,84.4751,VALID,208.328,VALID,22.6877,VALID,113,VALID,0,
2016-09-04, 14:41:04,VALID,919.299,VALID,0,VALID,82.2109,VALID,213.486,VALID,22.8048,VALID,113,VALID,0,
2016-09-04, 14:42:04,VALID,919.309,VALID,0,VALID,83.0876,VALID,218.75,VALID,22.6487,VALID,113,VALID,0,
2016-09-04, 14:43:04,VALID,919.303,VALID,0,VALID,84.2311,VALID,222.726,VALID,22.3754,VALID,113,VALID,0,
2016-09-04, 14:44:04,VALID,919.339,VALID,0,VALID,87.9818,VALID,227.453,VALID,22.0615,VALID,173,VALID,0,
2016-09-04, 14:45:04,VALID,919.358,VALID,0,VALID,95.7577,VALID,227.453,VALID,21.9249,VALID,257,VALID,0,
2016-09-04, 14:46:04,VALID,919.338,VALID,0,VALID,102.093,VALID,229.709,VALID,21.7883,VALID,261,VALID,0,
2016-09-04, 14:47:04,VALID,919.317,VALID,0,VALID,104,VALID,231.213,VALID,21.6729,VALID,273,VALID,0,
2016-09-04, 14:48:04,VALID,919.325,VALID,0,VALID,104,VALID,232.61,VALID,21.5542,VALID,273,VALID,0,
2016-09-04, 14:49:04,VALID,919.33,VALID,0,INVALID,109.747,VALID,236.693,VALID,21.4957,VALID,273,VALID,0,
2016-09-04, 14:50:04,VALID,919.346,VALID,0,INVALID,109.838,VALID,242.065,VALID,21.4177,VALID,280,VALID,0,
2016-09-04, 14:51:04,VALID,919.343,VALID,0,INVALID,110.959,VALID,248.726,VALID,21.3201,VALID,280,VALID,0,
2016-09-04, 14:52:04,VALID,919.35,VALID,0,INVALID,110.936,VALID,257.107,VALID,21.2226,VALID,281,VALID,0,
2016-09-04, 14:53:04,VALID,919.375,VALID,0,INVALID,112.224,VALID,260.008,VALID,21.1429,VALID,282,VALID,0,
2016-09-04, 14:54:04,VALID,919.391,VALID,0,INVALID,112.788,VALID,265.595,VALID,21.1445,VALID,282,VALID,0,
2016-09-04, 14:55:04,VALID,919.375,VALID,0,INVALID,112.735,VALID,271.289,VALID,21.1836,VALID,283,VALID,0,
2016-09-04, 14:56:04,VALID,919.4,VALID,0,INVALID,111.965,VALID,275.049,VALID,21.1852,VALID,296,VALID,0,
2016-09-04, 14:57:04,VALID,919.441,VALID,0,INVALID,112.529,VALID,277.735,VALID,21.1852,VALID,292,VALID,0,
2016-09-04, 14:58:04,VALID,919.449,VALID,0,INVALID,112.407,VALID,280.529,VALID,21.2031,VALID,275,VALID,0,
2016-09-04, 14:59:04,VALID,919.48,VALID,0,INVALID,112.369,VALID,281.926,VALID,21.2616,VALID,274,VALID,0,
2016-09-04, 15:00:04,VALID,919.477,VALID,0,INVALID,111.226,VALID,287.727,VALID,21.3201,VALID,269,VALID,0,
2016-09-04, 15:01:04,VALID,919.487,VALID,0,INVALID,111.21,VALID,288.05,VALID,21.3786,VALID,269,VALID,0,
2016-09-04, 15:02:04,VALID,919.494,VALID,0,INVALID,111.043,VALID,292.562,VALID,21.4762,VALID,272,VALID,0,
2016-09-04, 15:03:04,VALID,919.516,VALID,0,INVALID,110.395,VALID,292.992,VALID,21.6128,VALID,275,VALID,0,
2016-09-04, 15:04:04,VALID,919.495,VALID,0,VALID,104,VALID,299.761,VALID,21.5737,VALID,278,VALID,0,
2016-09-04, 15:05:04,VALID,919.488,VALID,0,VALID,104,VALID,301.587,VALID,21.5136,VALID,276,VALID,0,
2016-09-04, 15:06:04,VALID,919.519,VALID,0,INVALID,109.579,VALID,305.133,VALID,21.5721,VALID,283,VALID,0,
2016-09-04, 15:07:04,VALID,919.526,VALID,0,VALID,104,VALID,305.67,VALID,21.8274,VALID,319,VALID,0,
2016-09-04, 15:08:04,VALID,919.557,VALID,0,VALID,100.682,VALID,309.216,VALID,22.0013,INVALID,360,VALID,0,
2016-09-04, 15:09:04,VALID,919.547,VALID,0,VALID,95.6967,VALID,315.984,VALID,22.1184,VALID,311,VALID,0,
2016-09-04, 15:10:04,VALID,919.532,VALID,0,VALID,104,VALID,317.811,VALID,22.255,VALID,347,VALID,0,
2016-09-04, 15:11:04,VALID,919.572,VALID,0,VALID,90.8406,VALID,323.183,VALID,22.3916,VALID,359,VALID,0,
2016-09-04, 15:12:04,VALID,919.584,VALID,0,VALID,89.0415,VALID,324.257,VALID,22.4306,VALID,323,VALID,0,
2016-09-04, 15:13:04,VALID,919.565,VALID,0,VALID,87.311,VALID,325.654,VALID,22.4696,VALID,10,VALID,0.917969,
2016-09-04, 15:14:04,VALID,919.589,VALID,0,VALID,88.3249,VALID,328.34,VALID,22.5086,VALID,11,VALID,0.00117188,
2016-09-04, 15:15:04,VALID,919.567,VALID,0,VALID,89.0644,VALID,327.051,VALID,22.5477,VALID,12,VALID,0.319141,
2016-09-04, 15:16:04,VALID,919.61,VALID,0,VALID,95.529,VALID,323.398,VALID,22.6257,VALID,357,VALID,0,
2016-09-04, 15:17:04,VALID,919.603,VALID,0,VALID,85.2222,VALID,316.414,VALID,22.6257,VALID,273,VALID,0,
2016-09-04, 15:18:04,VALID,919.606,VALID,0,VALID,83.4535,VALID,322.001,VALID,22.5867,VALID,279,VALID,0,
2016-09-04, 15:19:04,VALID,919.656,VALID,0,VALID,86.0989,VALID,309.645,VALID,22.5494,VALID,309,VALID,0,
2016-09-04, 15:20:04,VALID,919.661,VALID,0,VALID,85.8244,VALID,307.282,VALID,22.4306,VALID,313,VALID,0,
2016-09-04, 15:21:04,VALID,919.675,VALID,0,VALID,87.7531,VALID,365.192,VALID,22.294,VALID,288,VALID,0,
2016-09-04, 15:22:04,VALID,919.688,VALID,0,VALID,92.9066,VALID,369.06,VALID,22.2354,VALID,287,VALID,0,
2016-09-04, 15:23:04,VALID,919.699,VALID,0,VALID,98.1439,VALID,370.994,VALID,22.372,VALID,21,VALID,0.723437,
2016-09-04, 15:24:04,VALID,919.719,VALID,0,VALID,90.6119,VALID,377.656,VALID,22.5477,VALID,292,VALID,0,
2016-09-04, 15:25:04,VALID,919.729,VALID,0,VALID,91.7021,VALID,380.986,VALID,22.6843,VALID,289,VALID,0,
2016-09-04, 15:26:04,VALID,919.715,VALID,0,VALID,88.3478,VALID,380.771,VALID,22.9185,VALID,327,VALID,0,
2016-09-04, 15:27:04,VALID,919.749,VALID,0,VALID,84.3683,VALID,377.118,VALID,23.1331,VALID,320,VALID,0,
2016-09-04, 15:28:04,VALID,919.721,VALID,0,VALID,80.8311,VALID,372.821,VALID,23.2307,VALID,24,VALID,0,
2016-09-04, 15:29:04,VALID,919.728,VALID,0,VALID,81.8145,VALID,377.871,VALID,23.268,VALID,17,VALID,0,
2016-09-04, 15:30:04,VALID,919.717,VALID,0,VALID,82.1728,VALID,383.028,VALID,23.4437,VALID,347,VALID,0,
2016-09-04, 15:31:04,VALID,919.74,VALID,0,VALID,79.0472,VALID,385.821,VALID,23.3265,VALID,286,VALID,0,
2016-09-04, 15:32:04,VALID,919.715,VALID,0,VALID,79.1387,VALID,394.416,VALID,23.1119,VALID,286,VALID,0,
2016-09-04, 15:33:04,VALID,919.765,VALID,0,VALID,80.5871,VALID,402.582,VALID,22.9362,VALID,287,VALID,0,
2016-09-04, 15:34:04,VALID,919.781,VALID,0,VALID,83.3773,VALID,402.26,VALID,22.9362,VALID,2,VALID,0,
2016-09-04, 15:35:04,VALID,919.758,VALID,0,VALID,82.2414,VALID,412.252,VALID,23.0746,VALID,13,VALID,0,
2016-09-04, 15:36:04,VALID,919.762,VALID,0,VALID,82.5616,VALID,425.36,VALID,23.2094,INVALID,360,VALID,0,
2016-09-04, 15:37:04,VALID,919.754,VALID,0,VALID,82.1804,VALID,271.396,VALID,23.3656,VALID,25,VALID,0.683594,
2016-09-04, 15:38:04,VALID,919.742,VALID,0,VALID,80.3508,VALID,453.187,VALID,23.5217,VALID,46,VALID,0,
2016-09-04, 15:39:04,VALID,919.755,VALID,0,VALID,79.3445,VALID,460.815,VALID,23.7382,VALID,10,VALID,0,
2016-09-04, 15:40:04,VALID,919.746,VALID,0,VALID,78.1629,VALID,473.923,VALID,23.9121,VALID,12,VALID,0,
2016-09-04, 15:41:04,VALID,919.721,VALID,0,VALID,78.2239,VALID,478.006,VALID,24.1464,VALID,11,VALID,0,
2016-09-04, 15:42:04,VALID,919.756,VALID,0,VALID,77.0804,VALID,479.725,VALID,24.3611,VALID,21,VALID,0.877734,
2016-09-04, 15:43:04,VALID,919.726,VALID,0,VALID,77.0422,VALID,481.014,VALID,24.5192,VALID,5,VALID,0.0167969,
2016-09-04, 15:44:04,VALID,919.773,VALID,0,VALID,73.5812,VALID,496.056,VALID,24.5778,VALID,325,VALID,0.317578,
2016-09-04, 15:45:04,VALID,919.765,VALID,0,VALID,76.6611,VALID,526.569,VALID,24.2049,VALID,327,VALID,0.459766,
2016-09-04, 15:46:04,VALID,919.785,VALID,0,VALID,76.9736,VALID,230.676,VALID,23.9902,VALID,292,VALID,0,
2016-09-04, 15:47:04,VALID,919.773,VALID,0,VALID,79.1311,VALID,611.125,VALID,23.834,VALID,328,VALID,0,
2016-09-04, 15:48:04,VALID,919.773,VALID,0,VALID,78.8566,VALID,605.753,VALID,23.7364,VALID,18,VALID,0.966797,
2016-09-04, 15:49:04,VALID,919.788,VALID,0,VALID,79.1387,VALID,592.108,VALID,23.6193,VALID,290,VALID,0.218359,
2016-09-04, 15:50:04,VALID,919.76,VALID,0,VALID,79.8095,VALID,627.886,VALID,23.6193,VALID,47,VALID,0.410937,
2016-09-04, 15:51:04,VALID,919.743,VALID,0,VALID,79.8477,VALID,333.605,VALID,23.7542,VALID,43,VALID,0,
2016-09-04, 15:52:04,VALID,919.718,VALID,0,VALID,79.1082,VALID,513.354,VALID,24.0097,VALID,22,VALID,0.484375,
2016-09-04, 15:53:04,VALID,919.739,VALID,0,VALID,77.9189,VALID,291.703,VALID,24.2049,VALID,40,VALID,0,
2016-09-04, 15:54:04,VALID,919.739,VALID,0,VALID,77.4005,VALID,301.372,VALID,24.3593,VALID,17,VALID,0,
2016-09-04, 15:55:04,VALID,919.709,VALID,0,VALID,76.3485,VALID,340.159,VALID,24.4959,VALID,17,VALID,0,
2016-09-04, 15:56:04,VALID,919.742,VALID,0,VALID,76.0512,VALID,407.739,VALID,24.5545,VALID,21,VALID,0,
2016-09-04, 15:57:04,VALID,919.73,VALID,0,VALID,77.2862,VALID,684.293,VALID,24.5935,VALID,24,VALID,0,
2016-09-04, 15:58:04,VALID,919.693,VALID,0,VALID,74.3054,VALID,366.267,VALID,24.6716,VALID,323,VALID,0,
2016-09-04, 15:59:04,VALID,919.723,VALID,0,VALID,75.6548,VALID,311.794,VALID,24.6716,VALID,9,VALID,0,
2016-09-04, 16:00:04,VALID,919.753,VALID,0,VALID,74.1072,VALID,310.183,VALID,24.5935,VALID,47,VALID,0,
2016-09-04, 16:01:04,VALID,919.761,VALID,0,VALID,74.9915,VALID,266.991,VALID,24.5935,VALID,47,VALID,0,
2016-09-04, 16:02:04,VALID,919.808,VALID,0,VALID,75.1059,VALID,395.276,VALID,24.5935,VALID,47,VALID,0,
2016-09-04, 16:03:04,VALID,919.838,VALID,0,VALID,74.3131,VALID,414.186,VALID,24.5935,VALID,197,VALID,0,
2016-09-04, 16:04:04,VALID,919.86,VALID,0,VALID,74.1758,VALID,240.561,VALID,24.6131,VALID,196,VALID,0,
2016-09-04, 16:05:04,VALID,919.834,VALID,0,VALID,74.0844,VALID,251.305,VALID,24.2989,VALID,241,VALID,0.0417969,
2016-09-04, 16:06:04,VALID,919.839,VALID,0,VALID,75.266,VALID,235.081,VALID,24.086,VALID,246,VALID,0,
2016-09-04, 16:07:04,VALID,919.827,VALID,0,VALID,76.4552,VALID,253.991,VALID,24.0079,VALID,246,VALID,0,
2016-09-04, 16:08:04,VALID,919.835,VALID,0,VALID,76.7678,VALID,402.367,VALID,23.9884,VALID,246,VALID,0,
2016-09-04, 16:09:04,VALID,919.87,VALID,0,VALID,77.5378,VALID,247.222,VALID,24.0061,VALID,132,VALID,0,
2016-09-04, 16:10:04,VALID,919.875,VALID,0,VALID,76.1732,VALID,214.99,VALID,23.9085,VALID,146,VALID,0,
2016-09-04, 16:11:04,VALID,919.856,VALID,0,VALID,77.5149,VALID,209.833,VALID,23.8517,VALID,128,VALID,0,
2016-09-04, 16:12:04,VALID,919.895,VALID,0,VALID,78.2086,VALID,223.585,VALID,23.7914,VALID,128,VALID,0,
2016-09-04, 16:13:04,VALID,919.886,VALID,0,VALID,77.6902,VALID,285.364,VALID,23.8109,VALID,128,VALID,0,
2016-09-04, 16:14:04,VALID,919.918,VALID,0,VALID,78.1324,VALID,207.469,VALID,23.8322,VALID,130,VALID,0,
2016-09-04, 16:15:04,VALID,919.881,VALID,0,VALID,78.5974,VALID,195.973,VALID,23.8694,VALID,128,VALID,0,
2016-09-04, 16:16:04,VALID,919.922,VALID,0,VALID,78.4373,VALID,194.039,VALID,23.9103,VALID,115,VALID,0,
2016-09-04, 16:17:04,VALID,919.922,VALID,0,VALID,78.445,VALID,215.634,VALID,23.8499,VALID,88,VALID,0,
2016-09-04, 16:18:04,VALID,919.928,VALID,0,VALID,77.8884,VALID,209.833,VALID,23.889,VALID,88,VALID,0,
2016-09-04, 16:19:04,VALID,919.917,VALID,0,VALID,77.8198,VALID,184.691,VALID,23.9085,VALID,88,VALID,0,
2016-09-04, 16:20:04,VALID,919.959,VALID,0,VALID,78.5974,VALID,174.055,VALID,23.928,VALID,29,VALID,0,
2016-09-04, 16:21:04,VALID,919.961,VALID,0,VALID,78.4373,VALID,172.873,VALID,23.928,VALID,27,VALID,0,
2016-09-04, 16:22:04,VALID,919.983,VALID,0,VALID,77.8427,VALID,178.352,VALID,23.9689,VALID,28,VALID,0,
2016-09-04, 16:23:04,VALID,919.986,VALID,0,VALID,77.5911,VALID,194.146,VALID,23.967,VALID,27,VALID,0,
2016-09-04, 16:24:04,VALID,919.996,VALID,0,VALID,76.4857,VALID,226.164,VALID,23.9884,VALID,26,VALID,0,
2016-09-04, 16:25:04,VALID,920,VALID,0,VALID,76.623,VALID,265.702,VALID,23.8908,VALID,312,VALID,0,
2016-09-04, 16:26:04,VALID,919.998,VALID,0,VALID,77.7588,VALID,274.405,VALID,23.9085,VALID,355,VALID,0,
2016-09-04, 16:27:04,VALID,920.005,VALID,0,VALID,79.0472,VALID,240.131,VALID,23.8908,VALID,357,VALID,0,
2016-09-04, 16:28:04,VALID,920.033,VALID,0,VALID,79.4589,VALID,227.775,VALID,23.8908,VALID,357,VALID,0,
2016-09-04, 16:29:04,VALID,920.022,VALID,0,VALID,77.8808,VALID,235.833,VALID,23.8109,VALID,350,VALID,0,
2016-09-04, 16:30:04,VALID,920.039,VALID,0,VALID,77.7131,VALID,241.205,VALID,23.7932,VALID,328,VALID,0,
2016-09-04, 16:31:04,VALID,919.995,VALID,0,VALID,77.1566,VALID,217.891,VALID,23.7542,VALID,301,VALID,0,
2016-09-04, 16:32:04,VALID,920.045,VALID,0,VALID,77.0117,VALID,190.708,VALID,23.7523,VALID,298,VALID,0,
2016-09-04, 16:33:04,VALID,920.024,VALID,0,VALID,77.4996,VALID,177.385,VALID,23.8517,VALID,308,VALID,0,
2016-09-04, 16:34:04,VALID,920.06,VALID,0,VALID,77.2176,VALID,179.319,VALID,23.9689,VALID,308,VALID,0,
2016-09-04, 16:35:04,VALID,920.034,VALID,0,VALID,75.266,VALID,199.733,VALID,24.0274,VALID,308,VALID,0,
2016-09-04, 16:36:04,VALID,920.02,VALID,0,VALID,76.1274,VALID,353.696,VALID,24.0665,VALID,308,VALID,0,
2016-09-04, 16:37:04,VALID,920.059,VALID,0,VALID,75.7386,VALID,710.186,VALID,24.1445,VALID,308,VALID,0,
2016-09-04, 16:38:04,VALID,920.055,VALID,0,VALID,77.1261,VALID,245.718,VALID,24.3788,VALID,308,VALID,0,
2016-09-04, 16:39:04,VALID,920.051,VALID,0,VALID,74.3588,VALID,209.188,VALID,24.5155,VALID,298,VALID,0,
2016-09-04, 16:40:04,VALID,920.028,VALID,0,VALID,73.5965,VALID,422.566,VALID,24.5935,VALID,308,VALID,0,
2016-09-04, 16:41:04,VALID,920.035,VALID,0,VALID,73.0399,VALID,190.278,VALID,24.7107,VALID,308,VALID,0,
2016-09-04, 16:42:04,VALID,920.021,VALID,0,VALID,72.8265,VALID,683.111,VALID,24.8083,VALID,308,VALID,0,
2016-09-04, 16:43:04,VALID,920.012,VALID,0,VALID,71.2256,VALID,675.483,VALID,25.0231,VALID,308,VALID,0,
2016-09-04, 16:44:04,VALID,920.031,VALID,0,VALID,69.2969,VALID,684.293,VALID,25.0817,VALID,299,VALID,0,
2016-09-04, 16:45:04,VALID,920.022,VALID,0,VALID,72.1633,VALID,680.425,VALID,24.9645,VALID,310,VALID,0,
2016-09-04, 16:46:04,VALID,920.02,VALID,0,VALID,71.965,VALID,332.208,VALID,24.9645,VALID,325,VALID,0,
2016-09-04, 16:47:04,VALID,920.032,VALID,0,VALID,72.7045,VALID,685.904,VALID,24.904,INVALID,360,VALID,0,
2016-09-04, 16:48:04,VALID,920.009,VALID,0,VALID,72.1937,VALID,688.268,VALID,24.9626,VALID,340,VALID,0,
2016-09-04, 16:49:04,VALID,919.985,VALID,0,VALID,71.5,VALID,685.582,VALID,24.9059,VALID,310,VALID,0,
2016-09-04, 16:50:04,VALID,919.974,VALID,0,VALID,73.0095,VALID,696.326,VALID,24.7088,VALID,327,VALID,0,
2016-09-04, 16:51:04,VALID,919.955,VALID,0,VALID,73.7337,VALID,698.045,VALID,24.7088,VALID,331,VALID,0,
2016-09-04, 16:52:04,VALID,919.929,VALID,0,VALID,72.0489,VALID,701.591,VALID,24.7302,VALID,297,VALID,0,
2016-09-04, 16:53:04,VALID,919.948,VALID,0,VALID,73.5355,VALID,715.451,VALID,24.7674,VALID,301,VALID,0,
2016-09-04, 16:54:04,VALID,919.935,VALID,0,VALID,71.3704,VALID,719.963,VALID,24.8455,VALID,293,VALID,0.437891,
2016-09-04, 16:55:04,VALID,919.959,VALID,0,VALID,72.0413,VALID,723.186,VALID,24.6698,VALID,269,VALID,1.17422,
2016-09-04, 16:56:04,VALID,919.957,VALID,0,VALID,73.0247,VALID,745.534,VALID,24.5136,VALID,261,VALID,0.307813,
2016-09-04, 16:57:04,VALID,919.945,VALID,0,VALID,73.2,VALID,775.188,VALID,24.6502,VALID,274,VALID,0,
2016-09-04, 16:58:04,VALID,919.931,VALID,0,VALID,72.3005,VALID,779.163,VALID,24.7479,VALID,6,VALID,0.141797,
2016-09-04, 16:59:04,VALID,919.934,VALID,0,VALID,72.1937,VALID,781.957,VALID,24.8474,VALID,344,VALID,1.54141,
2016-09-04, 17:00:04,VALID,919.882,VALID,0,VALID,72.7426,VALID,807.528,VALID,24.8241,VALID,36,VALID,0,
2016-09-04, 17:01:04,VALID,919.875,VALID,0,VALID,73.787,VALID,844.058,VALID,25.0407,VALID,349,VALID,0,
2016-09-04, 17:02:04,VALID,919.829,VALID,0,VALID,71.2408,VALID,874.678,VALID,25.0974,VALID,19,VALID,2.30156,
2016-09-04, 17:03:04,VALID,919.888,VALID,0,VALID,70.0211,VALID,891.439,VALID,25.1774,VALID,286,VALID,0.399219,
2016-09-04, 17:04:04,VALID,919.835,VALID,0,VALID,71.3247,VALID,909.919,VALID,24.9998,VALID,263,VALID,0,
2016-09-04, 17:05:04,VALID,919.82,VALID,0,VALID,71.6067,VALID,903.58,VALID,25.0212,VALID,262,VALID,0.151953,
2016-09-04, 17:06:04,VALID,919.857,VALID,0,VALID,70.3794,VALID,676.664,VALID,25.0798,VALID,258,VALID,0.0828125,
2016-09-04, 17:07:04,VALID,919.832,VALID,0,VALID,72.0946,VALID,601.348,VALID,25.2555,VALID,258,VALID,0,
2016-09-04, 17:08:04,VALID,919.813,VALID,0,VALID,71.8659,VALID,781.742,VALID,25.5289,VALID,351,VALID,0.265625,